Time,TemperatureF,DewpointF,PressureIn,WindDirection,WindDirectionDegrees,WindSpeedMPH,WindSpeedGustMPH,Humidity,HourlyPrecipIn,Conditions,Clouds,dailyrainin,SoftwareType,DateUTC
2013-08-08 00:09:00,70.3,70.0,29.86,South,180,0.0,-999.0,99,-99.99,,,0.00,Acu-Link.com,2013-08-08 04:09:00,
2013-08-08 00:24:00,70.3,70.0,29.85,East,90,0.0,-999.0,99,-99.99,,,0.00,Acu-Link.com,2013-08-08 04:24:00,
2013-08-08 00:39:00,70.3,70.0,29.85,West,270,0.0,-999.0,99,-99.99,,,0.00,Acu-Link.com,2013-08-08 04:39:00,
2013-08-08 00:54:00,70.3,70.0,29.85,SSW,202,0.0,-999.0,99,-99.99,,,0.00,Acu-Link.com,2013-08-08 04:54:00,
2013-08-08 01:10:00,70.3,70.0,29.85,East,90,0.0,-999.0,99,-99.99,,,0.00,Acu-Link.com,2013-08-08 05:10:00,
2013-08-08 01:25:00,70.3,70.0,29.85,East,90,0.0,-999.0,99,-99.99,,,0.00,Acu-Link.com,2013-08-08 05:25:00,
2013-08-08 01:40:00,70.5,70.2,29.85,SSE,157,0.0,-999.0,99,-99.99,,,0.00,Acu-Link.com,2013-08-08 05:40:00,
2013-08-08 01:55:00,70.7,70.4,29.84,West,270,0.0,-999.0,99,-99.99,,,0.00,Acu-Link.com,2013-08-08 05:55:00,
2013-08-08 02:10:00,71.2,70.9,29.84,West,270,0.0,-999.0,99,-99.99,,,0.00,Acu-Link.com,2013-08-08 06:10:00,
2013-08-08 02:25:00,71.4,71.1,29.84,South,180,0.0,-999.0,99,-99.99,,,0.00,Acu-Link.com,2013-08-08 06:25:00,
2013-08-08 02:40:00,71.6,71.3,29.84,ESE,112,0.0,-999.0,99,-99.99,,,0.00,Acu-Link.com,2013-08-08 06:40:00,
2013-08-08 02:55:00,71.6,71.3,29.84,ENE,67,0.0,-999.0,99,-99.99,,,0.00,Acu-Link.com,2013-08-08 06:55:00,
2013-08-08 03:11:00,71.2,70.9,29.84,East,90,0.0,-999.0,99,-99.99,,,0.00,Acu-Link.com,2013-08-08 07:11:00,
2013-08-08 03:26:00,71.1,70.8,29.84,ENE,67,0.0,-999.0,99,-99.99,,,0.00,Acu-Link.com,2013-08-08 07:26:00,
2013-08-08 03:41:00,70.7,70.4,29.84,ESE,112,0.0,-999.0,99,-99.99,,,0.00,Acu-Link.com,2013-08-08 07:41:00,
2013-08-08 03:56:00,70.5,70.2,29.84,NE,45,0.0,-999.0,99,-99.99,,,0.00,Acu-Link.com,2013-08-08 07:56:00,
2013-08-08 04:12:00,70.3,70.0,29.83,East,90,0.0,-999.0,99,-99.99,,,0.00,Acu-Link.com,2013-08-08 08:12:00,
2013-08-08 04:27:00,70.3,70.0,29.84,North,0,0.0,-999.0,99,-99.99,,,0.00,Acu-Link.com,2013-08-08 08:27:00,
2013-08-08 04:42:00,70.7,70.4,29.83,South,180,0.0,-999.0,99,-99.99,,,0.00,Acu-Link.com,2013-08-08 08:42:00,
2013-08-08 04:57:00,70.7,70.4,29.84,NW,315,0.0,-999.0,99,-99.99,,,0.00,Acu-Link.com,2013-08-08 08:57:00,
2013-08-08 05:12:00,70.7,70.4,29.83,East,90,0.0,-999.0,99,-99.99,,,0.00,Acu-Link.com,2013-08-08 09:12:00,
2013-08-08 05:28:00,70.7,70.4,29.83,SE,135,0.0,-999.0,99,-99.99,,,0.00,Acu-Link.com,2013-08-08 09:28:00,
2013-08-08 05:43:00,70.9,70.6,29.83,NE,45,0.0,-999.0,99,-99.99,,,0.00,Acu-Link.com,2013-08-08 09:43:00,
2013-08-08 05:58:00,70.9,70.6,29.83,SW,225,0.0,-999.0,99,-99.99,,,0.00,Acu-Link.com,2013-08-08 09:58:00,
2013-08-08 06:13:00,70.9,70.6,29.83,SSW,202,0.0,-999.0,99,-99.99,,,0.00,Acu-Link.com,2013-08-08 10:13:00,
2013-08-08 06:28:00,71.1,70.8,29.84,WNW,292,0.0,-999.0,99,-99.99,,,0.00,Acu-Link.com,2013-08-08 10:28:00,
2013-08-08 06:43:00,71.2,70.9,29.85,NW,315,0.0,-999.0,99,-99.99,,,0.00,Acu-Link.com,2013-08-08 10:43:00,
2013-08-08 06:59:00,71.2,70.9,29.86,SE,135,0.0,-999.0,99,-99.99,,,0.00,Acu-Link.com,2013-08-08 10:59:00,
2013-08-08 07:14:00,71.4,71.1,29.86,East,90,0.0,-999.0,99,-99.99,,,0.00,Acu-Link.com,2013-08-08 11:14:00,
2013-08-08 07:29:00,71.4,71.1,29.86,SSW,202,0.0,-999.0,99,-99.99,,,0.00,Acu-Link.com,2013-08-08 11:29:00,
2013-08-08 07:44:00,71.8,71.5,29.87,NE,45,0.0,-999.0,99,-99.99,,,0.00,Acu-Link.com,2013-08-08 11:44:00,
2013-08-08 07:59:00,72.3,72.0,29.86,NE,45,0.0,-999.0,99,-99.99,,,0.00,Acu-Link.com,2013-08-08 11:59:00,
2013-08-08 08:14:00,73.9,73.6,29.86,SSE,157,1.7,-999.0,99,-99.99,,,0.00,Acu-Link.com,2013-08-08 12:14:00,
2013-08-08 08:29:00,75.9,75.6,29.87,WSW,247,0.0,-999.0,99,-99.99,,,0.00,Acu-Link.com,2013-08-08 12:29:00,
2013-08-08 08:44:00,78.1,75.3,29.87,ESE,112,0.0,-999.0,91,-99.99,,,0.00,Acu-Link.com,2013-08-08 12:44:00,
2013-08-08 08:59:00,80.1,75.2,29.86,SSW,202,2.7,-999.0,85,-99.99,,,0.00,Acu-Link.com,2013-08-08 12:59:00,
2013-08-08 09:15:00,82.0,75.6,29.87,SSE,157,2.7,-999.0,81,-99.99,,,0.00,Acu-Link.com,2013-08-08 13:15:00,
2013-08-08 09:30:00,81.9,75.8,29.87,SE,135,0.0,-999.0,82,-99.99,,,0.00,Acu-Link.com,2013-08-08 13:30:00,
2013-08-08 09:45:00,82.2,75.4,29.87,SE,135,2.2,-999.0,80,-99.99,,,0.00,Acu-Link.com,2013-08-08 13:45:00,
2013-08-08 10:00:00,83.1,76.6,29.88,SW,225,2.7,-999.0,81,-99.99,,,0.00,Acu-Link.com,2013-08-08 14:00:00,
2013-08-08 10:15:00,83.5,76.7,29.88,WSW,247,1.7,-999.0,80,-99.99,,,0.00,Acu-Link.com,2013-08-08 14:15:00,
2013-08-08 10:30:00,82.9,75.7,29.88,North,0,4.7,-999.0,79,-99.99,,,0.00,Acu-Link.com,2013-08-08 14:30:00,
2013-08-08 10:46:00,82.6,75.8,29.89,WNW,292,2.2,-999.0,80,-99.99,,,0.00,Acu-Link.com,2013-08-08 14:46:00,
2013-08-08 11:01:00,83.1,76.3,29.89,WNW,292,4.2,-999.0,80,-99.99,,,0.00,Acu-Link.com,2013-08-08 15:01:00,
2013-08-08 11:16:00,82.6,76.2,29.89,SSW,202,3.7,-999.0,81,-99.99,,,0.00,Acu-Link.com,2013-08-08 15:16:00,
2013-08-08 11:31:00,82.0,75.6,29.90,SW,225,2.7,-999.0,81,-99.99,,,0.00,Acu-Link.com,2013-08-08 15:31:00,
2013-08-08 11:46:00,83.8,76.2,29.90,South,180,2.2,-999.0,78,-99.99,,,0.00,Acu-Link.com,2013-08-08 15:46:00,
2013-08-08 12:01:00,82.9,76.1,29.90,SSE,157,1.7,-999.0,80,-99.99,,,0.00,Acu-Link.com,2013-08-08 16:01:00,
2013-08-08 12:16:00,83.3,75.7,29.90,SE,135,2.2,-999.0,78,-99.99,,,0.00,Acu-Link.com,2013-08-08 16:16:00,
2013-08-08 12:31:00,83.3,75.7,29.90,South,180,3.7,-999.0,78,-99.99,,,0.00,Acu-Link.com,2013-08-08 16:31:00,
2013-08-08 12:46:00,84.6,76.2,29.90,NNE,22,2.2,-999.0,76,-99.99,,,0.00,Acu-Link.com,2013-08-08 16:46:00,
2013-08-08 13:01:00,86.7,76.6,29.89,South,180,3.2,-999.0,72,-99.99,,,0.00,Acu-Link.com,2013-08-08 17:01:00,
2013-08-08 13:17:00,86.7,77.0,29.89,South,180,4.2,-999.0,73,-99.99,,,0.00,Acu-Link.com,2013-08-08 17:17:00,
2013-08-08 13:32:00,85.8,76.5,29.88,North,0,3.2,-999.0,74,-99.99,,,0.00,Acu-Link.com,2013-08-08 17:32:00,
2013-08-08 13:47:00,87.8,76.3,29.87,West,270,3.7,-999.0,69,-99.99,,,0.00,Acu-Link.com,2013-08-08 17:47:00,
2013-08-08 14:02:00,88.7,76.7,29.87,NNE,22,1.1,-999.0,68,-99.99,,,0.00,Acu-Link.com,2013-08-08 18:02:00,
2013-08-08 14:17:00,85.3,76.0,29.86,North,0,2.7,-999.0,74,-99.99,,,0.00,Acu-Link.com,2013-08-08 18:17:00,
2013-08-08 14:32:00,85.8,75.7,29.86,ENE,67,4.2,-999.0,72,-99.99,,,0.00,Acu-Link.com,2013-08-08 18:32:00,
2013-08-08 14:47:00,86.7,76.6,29.85,SW,225,3.2,-999.0,72,-99.99,,,0.00,Acu-Link.com,2013-08-08 18:47:00,
2013-08-08 15:02:00,86.9,75.9,29.85,SSE,157,4.2,-999.0,70,-99.99,,,0.00,Acu-Link.com,2013-08-08 19:02:00,
2013-08-08 15:17:00,86.7,76.1,29.84,South,180,2.7,-999.0,71,-99.99,,,0.00,Acu-Link.com,2013-08-08 19:17:00,
2013-08-08 15:33:00,87.6,77.0,29.83,SSW,202,3.7,-999.0,71,-99.99,,,0.00,Acu-Link.com,2013-08-08 19:33:00,
2013-08-08 15:48:00,87.3,75.4,29.83,North,0,5.3,-999.0,68,-99.99,,,0.00,Acu-Link.com,2013-08-08 19:48:00,
2013-08-08 16:03:00,88.9,76.0,29.83,SSW,202,3.7,-999.0,66,-99.99,,,0.00,Acu-Link.com,2013-08-08 20:03:00,
2013-08-08 16:18:00,87.3,76.7,29.82,SW,225,3.2,-999.0,71,-99.99,,,0.00,Acu-Link.com,2013-08-08 20:18:00,
2013-08-08 16:33:00,86.0,77.1,29.83,SSE,157,2.2,-999.0,75,-99.99,,,0.00,Acu-Link.com,2013-08-08 20:33:00,
2013-08-08 16:48:00,85.1,77.8,29.82,NE,45,1.1,-999.0,79,-99.99,,,0.00,Acu-Link.com,2013-08-08 20:48:00,
2013-08-08 17:03:00,84.6,77.0,29.82,ESE,112,0.0,-999.0,78,-99.99,,,0.00,Acu-Link.com,2013-08-08 21:03:00,
2013-08-08 17:18:00,88.0,78.2,29.82,ESE,112,0.0,-999.0,73,-99.99,,,0.00,Acu-Link.com,2013-08-08 21:18:00,
2013-08-08 17:33:00,88.0,79.1,29.83,NW,315,0.0,-999.0,75,-99.99,,,0.00,Acu-Link.com,2013-08-08 21:33:00,
2013-08-08 18:34:00,72.5,71.3,29.88,NNW,337,4.2,-999.0,96,-99.99,,,0.01,Acu-Link.com,2013-08-08 22:34:00,
2013-08-08 18:49:00,71.4,71.1,29.88,NW,315,3.2,-999.0,99,-99.99,,,0.52,Acu-Link.com,2013-08-08 22:49:00,
2013-08-08 19:04:00,71.2,70.9,29.86,WNW,292,3.2,-999.0,99,-99.99,,,0.67,Acu-Link.com,2013-08-08 23:04:00,
2013-08-08 19:19:00,71.1,70.8,29.86,SW,225,1.7,-999.0,99,-99.99,,,0.67,Acu-Link.com,2013-08-08 23:19:00,
2013-08-08 19:34:00,71.2,70.9,29.87,SSW,202,0.0,-999.0,99,-99.99,,,0.68,Acu-Link.com,2013-08-08 23:34:00,
2013-08-08 19:49:00,71.1,70.8,29.87,SSW,202,2.7,-999.0,99,-99.99,,,0.68,Acu-Link.com,2013-08-08 23:49:00,
2013-08-08 20:05:00,71.1,70.8,29.86,SE,135,0.0,-999.0,99,-99.99,,,0.68,Acu-Link.com,2013-08-09 00:05:00,
2013-08-08 20:20:00,71.1,70.8,29.85,WSW,247,0.0,-999.0,99,-99.99,,,0.68,Acu-Link.com,2013-08-09 00:20:00,
2013-08-08 20:35:00,70.9,70.6,29.86,NE,45,0.0,-999.0,99,-99.99,,,0.68,Acu-Link.com,2013-08-09 00:35:00,
2013-08-08 20:50:00,70.9,70.6,29.87,ESE,112,0.0,-999.0,99,-99.99,,,0.68,Acu-Link.com,2013-08-09 00:50:00,
2013-08-08 21:05:00,70.9,70.6,29.87,WSW,247,0.0,-999.0,99,-99.99,,,0.74,Acu-Link.com,2013-08-09 01:05:00,
2013-08-08 21:36:00,70.9,70.6,29.86,NNW,337,0.0,-999.0,99,-99.99,,,0.75,Acu-Link.com,2013-08-09 01:36:00,
2013-08-08 21:51:00,70.9,70.6,29.86,SSE,157,0.0,-999.0,99,-99.99,,,0.76,Acu-Link.com,2013-08-09 01:51:00,
2013-08-08 22:21:00,71.1,70.8,29.87,SSW,202,0.0,-999.0,99,-99.99,,,0.76,Acu-Link.com,2013-08-09 02:21:00,
2013-08-08 22:36:00,71.1,70.8,29.86,ENE,67,0.0,-999.0,99,-99.99,,,0.76,Acu-Link.com,2013-08-09 02:36:00,
2013-08-08 23:06:00,71.1,70.8,29.86,SW,225,0.0,-999.0,99,-99.99,,,0.76,Acu-Link.com,2013-08-09 03:06:00,
2013-08-08 23:21:00,71.1,70.8,29.86,SSE,157,0.0,-999.0,99,-99.99,,,0.76,Acu-Link.com,2013-08-09 03:21:00,
2013-08-08 23:37:00,71.1,70.8,29.86,South,180,0.0,-999.0,99,-99.99,,,0.76,Acu-Link.com,2013-08-09 03:37:00,
2013-08-08 23:52:00,71.1,70.8,29.85,NNW,337,0.0,-999.0,99,-99.99,,,0.76,Acu-Link.com,2013-08-09 03:52:00,